Location: Ciula Mare
(45.6000°N, 22.8167°E)
Time: 10:32:38
(UTC+00:00)

Cosmos 2278 Rocket - Pass Details

Date: 03 February 2023
Orbit: 841 x 845 km, 71.0° (Epoch: 20 March)

Event Time Altitude Azimuth Distance (km) Brightness Sun altitude
Rises 18:13:57 0° 337° (NNW) 3,415 5.7 -27.6°
Reaches altitude 10° 18:16:32 10° 344° (NNW) 2,476 4.8 -28.0°
Enters shadow 18:19:36 29° 5° (N) 1,496 3.4 -28.5°
